CYGFM05

Last updated on Mon Sep 15 2025 00:02:22 GMT+0000 (Coordinated Universal Time)

1 41884U 16078A 25257.06971419 .00011737 00000+0 25811-3 0 9993 2 41884 34.9603 270.8262 0007756 68.8436 291.3113 15.43108106485881
UTC large
Height (km)
Speed (km/s)
/
Latitude / Longitude
Inclination (degrees)
Orbital Period (minutes)
Azimuth
Elevation
Range (km)
Doppler Factor

Next 0 passes for location: London (51.5072 / 0.1276)

Sorry there are no passes over London.